Location: Howell Woods
(35.3600°N, 78.2900°W)
Time: 16:34:02
(UTC-05:00)

ISS - Pass Details

Date: 04 December 2021
Orbit: 413 x 422 km, 51.6° (Epoch: 28 January)

Event Time Altitude Azimuth Distance (km) Brightness Sun altitude
Rises 18:01:54 0° 325° (NW) 2,382 0.3 -12.4°
Reaches altitude 10° 18:04:40 10° 349° (N) 1,511 -1.0 -12.9°
Enters shadow 18:06:44 15° 27° (NNE) 1,220 -1.8 -13.3°
